Location: Moonridge Observatory
(39.2268°N, 77.7914°W)
Time: 00:15:24
(UTC-04:00)

Amateur Radio Satellites - All Passes

Search period start: 23 October 2017 23:45
Search period end: 24 October 2017 23:45
Location: Moonridge Observatory, 39.2268°N, 77.7914°W

Satellite Date Start Highest point End Downlink Frequencies (MHz)
Time Altitude Azimuth
ESTCUBE 1 23 Oct 23:49:53 23:54:21 79° 75° (ENE) 23:58:50 437.505/2401.250
PRISM 23 Oct 23:54:35 23:58:41 64° 285° (WNW) 00:02:47 437.425
UNISAT 6 24 Oct 00:02:11 00:05:53 24° 292° (WNW) 00:09:30 437.425
EO-79 24 Oct 00:10:40 00:13:22 16° 93° (E) 00:16:03 145.935-145.965
TIGRISAT 24 Oct 00:16:13 00:19:29 20° 294° (WNW) 00:22:41 435.000
POLYITAN 1 24 Oct 00:16:16 00:19:18 19° 94° (E) 00:22:19 437.675
NANOSAT C BR1 24 Oct 00:35:27 00:39:06 27° 96° (E) 00:42:43 145.865
QB50P2 24 Oct 00:36:09 00:40:05 35° 98° (E) 00:43:59 145.880/145.840
AIST 2D 24 Oct 00:37:03 00:40:30 69° 284° (WNW) 00:43:57 435.315
DUCHIFAT 1 24 Oct 00:43:51 00:47:35 30° 97° (E) 00:51:16 145.980
VELOX 1 24 Oct 00:58:31 01:02:52 74° 76° (ENE) 01:07:16 145.980
50 SAT 24 Oct 01:02:53 01:05:04 17° 69° (ENE) 01:07:16 437.505
NO-84 24 Oct 01:16:26 01:19:27 19° 124° (SE) 01:22:31 435.350 FM
RS-15 24 Oct 01:19:08 01:31:28 78° 303° (WNW) 01:43:50 29.354- 29.394
SPROUT 24 Oct 01:19:29 01:23:33 42° 261° (W) 01:27:38 437.525
EO-79 24 Oct 01:45:18 01:49:16 39° 288° (WNW) 01:53:12 145.935-145.965
POLYITAN 1 24 Oct 01:51:19 01:55:08 33° 289° (WNW) 01:58:57 437.675
DX 1 24 Oct 01:52:02 01:56:20 69° 74° (ENE) 02:00:39 434.975-435.025
UKube-1 24 Oct 02:07:36 02:11:51 64° 75° (ENE) 02:16:07 .
BUGSAT 1 24 Oct 02:10:39 02:14:52 76° 102° (ESE) 02:19:00 437.445
NANOSAT C BR1 24 Oct 02:11:18 02:14:40 23° 292° (WNW) 02:18:00 145.865
QB50P2 24 Oct 02:12:38 02:15:35 19° 293° (WNW) 02:18:32 145.880/145.840
Gurwin Techsat 1B 24 Oct 02:13:04 02:17:29 26° 95° (E) 02:21:52 435.225
DUCHIFAT 1 24 Oct 02:19:49 02:23:03 21° 292° (WNW) 02:26:14 145.980
50 SAT 24 Oct 02:34:40 02:37:12 21° 264° (W) 02:39:46 437.505
M-CUBED/EXP-1 PRIME 24 Oct 02:36:36 02:39:57 31° 103° (ESE) 02:43:32 437.505
Oscar 19 24 Oct 02:48:22 02:53:31 82° 103° (ESE) 02:58:38 437.125/150
NO-84 24 Oct 02:52:19 02:56:33 58° 320° (NW) 03:00:46 435.350 FM
AO-7 24 Oct 03:02:58 03:06:40 13° 89° (E) 03:10:21 .
ITUPSAT 1 24 Oct 03:13:12 03:17:42 41° 70° (ENE) 03:22:12 437.325
BEESAT 24 Oct 03:25:42 03:30:22 56° 73° (ENE) 03:35:04 436.000
ITAMSAT 1 24 Oct 03:32:34 03:34:21 12° 90° (E) 03:36:08 435.822/435.867
RS-15 24 Oct 03:36:10 03:46:21 29° 330° (NNW) 03:56:27 29.354- 29.394
MOZHAYETS 4 24 Oct 03:42:18 03:46:56 87° 254° (WSW) 03:51:36
UKube-1 24 Oct 03:48:00 03:48:15 10° 269° (W) 03:48:30 .
Gurwin Techsat 1B 24 Oct 03:52:36 03:57:28 38° 291° (WNW) 04:02:19 435.225
CUBESAT XI-V 24 Oct 04:04:56 04:09:05 34° 71° (ENE) 04:13:14 437.345
M-CUBED/EXP-1 PRIME 24 Oct 04:11:39 04:14:12 18° 296° (WNW) 04:16:50 437.505
Oscar 19 24 Oct 04:30:07 04:32:06 12° 300° (WNW) 04:34:04 437.125/150
NO-84 24 Oct 04:32:11 04:34:43 15° 338° (NNW) 04:37:13 435.350 FM
KKS-1 24 Oct 04:40:41 04:44:12 23° 67° (ENE) 04:47:44 437.445
ITUPSAT 1 24 Oct 04:52:09 04:55:38 20° 266° (W) 04:59:10 437.325
AO-7 24 Oct 04:52:14 05:00:35 78° 107° (ESE) 05:08:54 .
STARS 24 Oct 05:02:30 05:05:13 16° 65° (ENE) 05:07:57 437.465
BEESAT 24 Oct 05:05:54 05:08:28 14° 268° (W) 05:11:02 436.000
ITAMSAT 1 24 Oct 05:09:06 05:14:22 78° 285° (WNW) 05:19:34 435.822/435.867
CUBESAT XI-V 24 Oct 05:42:55 05:46:29 22° 266° (W) 05:50:04 437.345
O/OREOS (USA 219) 24 Oct 05:45:16 05:49:26 33° 62° (ENE) 05:53:35 437.305
SO-50 24 Oct 05:46:50 05:50:52 34° 114° (ESE) 05:54:54 436.795
DOVE 4 24 Oct 05:52:07 05:56:59 42° 98° (E) 06:01:58 437.250
RS-15 24 Oct 05:56:34 06:04:45 20° 6° (N) 06:12:44 29.354- 29.394
JUGNU 24 Oct 05:59:05 05:59:52 10° 176° (S) 06:00:38 437.505
CUTE-I 24 Oct 06:10:55 06:13:01 12° 90° (E) 06:15:08 437.470
KKS-1 24 Oct 06:16:40 06:20:34 30° 263° (W) 06:24:31 437.445
STARS 24 Oct 06:36:57 06:41:09 45° 260° (W) 06:45:25 437.465
KAITUO 1B 24 Oct 06:37:17 06:39:40 16° 94° (E) 06:42:03 145.475/437.950
STRAND 1 24 Oct 06:37:20 06:40:42 18° 63° (ENE) 06:44:04 437.568
NUDT-PHONESAT 24 Oct 06:44:06 06:46:45 19° 94° (E) 06:49:23 437.300
XW-2F 24 Oct 06:45:45 06:48:59 27° 96° (E) 06:52:11 145.980 - 146.000
AO-7 24 Oct 06:46:16 06:52:29 24° 305° (NW) 06:58:42 .
LilacSat-2 24 Oct 06:59:45 07:03:25 49° 99° (E) 07:07:04 437.200
XW-2D 24 Oct 07:01:18 07:04:56 49° 100° (E) 07:08:33 145.860 - 145.880
PCSat 24 Oct 07:02:45 07:07:09 26° 107° (ESE) 07:11:34 145.827
XW-2B 24 Oct 07:14:50 07:18:34 72° 101° (ESE) 07:22:18 145.730 - 145.750
O/OREOS (USA 219) 24 Oct 07:25:04 07:28:38 23° 259° (WSW) 07:32:11 437.305
SO-50 24 Oct 07:27:33 07:31:20 26° 312° (NW) 07:35:08 436.795
DOVE 4 24 Oct 07:30:24 07:34:22 23° 293° (WNW) 07:38:25 437.250
XW-2C 24 Oct 07:38:26 07:42:05 52° 285° (WNW) 07:45:43 145.795 - 145.815
CUTE-I 24 Oct 07:48:13 07:53:37 77° 286° (WNW) 07:58:59 437.470
NO-84 24 Oct 07:50:28 07:52:41 14° 21° (NNE) 07:54:48 435.350 FM
HO-68 24 Oct 07:57:06 08:04:02 48° 100° (E) 08:10:55 435.675
FO-29 24 Oct 08:00:07 08:03:44 19° 60° (ENE) 08:07:32 435.910
KAITUO 1B 24 Oct 08:10:29 08:13:40 28° 288° (WNW) 08:16:51 145.475/437.950
RS-15 24 Oct 08:11:12 08:22:11 38° 40° (NE) 08:32:36 29.354- 29.394
STRAND 1 24 Oct 08:14:22 08:19:23 55° 259° (W) 08:24:28 437.568
NUDT-PHONESAT 24 Oct 08:17:34 08:20:33 24° 290° (WNW) 08:23:32 437.300
XW-2F 24 Oct 08:20:19 08:22:53 18° 292° (WNW) 08:25:26 145.980 - 146.000
nSIGHT-1 24 Oct 08:22:03 08:24:56 31° 135° (SE) 08:27:49 .
SEEDS 24 Oct 08:25:22 08:29:29 57° 100° (E) 08:33:35 437.485
CUTE 1.7 + AOD 2 24 Oct 08:26:41 08:30:54 81° 283° (WNW) 08:35:06 437.475
ZACube-1 24 Oct 08:33:27 08:36:26 18° 93° (E) 08:39:23 437.345
CUBEBUG 2 24 Oct 08:35:43 08:40:18 71° 101° (E) 08:44:42 437.445
LilacSat-2 24 Oct 08:36:14 08:37:14 11° 295° (WNW) 08:38:13 437.200
AAUSAT CUBESAT 2 24 Oct 08:36:20 08:40:02 31° 97° (E) 08:43:44 437.432
XW-2D 24 Oct 08:37:44 08:38:38 11° 295° (WNW) 08:39:33 145.860 - 145.880
XW-2A 24 Oct 08:43:14 08:46:30 50° 100° (E) 08:49:43 145.665 - 145.685
PCSat 24 Oct 08:45:10 08:50:17 42° 304° (NW) 08:55:26 145.827
Oscar 11 24 Oct 09:02:04 09:05:30 23° 95° (E) 09:08:54 .
YUBILEINY 24 Oct 09:04:26 09:12:36 48° 88° (E) 09:20:49 435.215
UWE-3 24 Oct 09:04:42 09:09:10 83° 101° (ESE) 09:13:28 435.000/436.395/437.385
ISS 24 Oct 09:05:36 09:08:50 83° 143° (SE) 09:12:06 437.550
UNISAT 6 24 Oct 09:22:53 09:26:39 25° 68° (ENE) 09:30:28 437.425
NO-84 24 Oct 09:26:58 09:30:50 59° 40° (NE) 09:34:23 435.350 FM
CUTE-I 24 Oct 09:32:36 09:32:44 10° 302° (WNW) 09:32:50 437.470
TIGRISAT 24 Oct 09:36:03 09:40:08 31° 70° (ENE) 09:44:15 435.000
FO-29 24 Oct 09:43:06 09:48:15 55° 260° (W) 09:53:51 435.910
AO-73 24 Oct 09:43:46 09:48:05 77° 284° (WNW) 09:52:16 145.935
HO-68 24 Oct 09:45:16 09:51:28 32° 297° (WNW) 09:57:39 435.675
nSIGHT-1 24 Oct 09:58:24 10:01:12 27° 331° (NNW) 10:04:01 .
SEEDS 24 Oct 10:03:06 10:04:40 12° 296° (WNW) 10:06:12 437.485
ZACube-1 24 Oct 10:08:53 10:12:49 35° 289° (WNW) 10:16:40 437.345
AAUSAT CUBESAT 2 24 Oct 10:12:16 10:15:15 20° 292° (WNW) 10:18:15 437.432
CUBEBUG 2 24 Oct 10:14:45 10:16:13 11° 298° (WNW) 10:17:42 437.445
SRMSAT 24 Oct 10:18:22 10:19:21 10° 184° (S) 10:20:21 437.500
RS-15 24 Oct 10:23:51 10:35:36 71° 245° (WSW) 10:46:41 29.354- 29.394
EO-88 24 Oct 10:36:58 10:40:05 27° 97° (E) 10:43:12 145.990 - 145.960
Oscar 11 24 Oct 10:37:54 10:41:36 28° 290° (WNW) 10:45:16 .
BEESAT 3 24 Oct 10:38:37 10:41:27 19° 111° (ESE) 10:44:19 437.485
PRISM 24 Oct 10:42:14 10:46:15 74° 77° (ENE) 10:50:19 437.425
ISS 24 Oct 10:43:24 10:45:40 17° 338° (NNW) 10:47:56 437.550
Max Valier Satellite 24 Oct 10:56:37 11:00:17 75° 102° (ESE) 11:03:55 145.860
DELFI C3 24 Oct 10:58:03 11:02:02 74° 282° (WNW) 11:05:59 145.870
UNISAT 6 24 Oct 10:59:00 11:03:10 32° 264° (W) 11:07:23 437.425
YUBILEINY 24 Oct 11:01:46 11:09:32 36° 288° (WNW) 11:17:25 435.215
EO-79 24 Oct 11:03:19 11:04:48 12° 63° (ENE) 11:06:18 145.935-145.965
NO-84 24 Oct 11:05:50 11:07:41 13° 239° (WSW) 11:09:28 435.350 FM
POLYITAN 1 24 Oct 11:08:39 11:10:47 14° 64° (ENE) 11:12:53 437.675
AIST 2D 24 Oct 11:10:01 11:13:08 31° 73° (ENE) 11:16:15 435.315
TIGRISAT 24 Oct 11:12:55 11:16:46 26° 265° (W) 11:20:40 435.000
NANOSAT C BR1 24 Oct 11:26:49 11:29:49 19° 67° (ENE) 11:32:49 145.865
QB50P2 24 Oct 11:27:46 11:31:12 24° 68° (ENE) 11:34:40 145.880/145.840
DUCHIFAT 1 24 Oct 11:34:49 11:37:56 20° 67° (ENE) 11:41:04 145.980
nSIGHT-1 24 Oct 11:37:52 11:38:20 10° 351° (N) 11:38:47 .
ESTCUBE 1 24 Oct 11:44:18 11:47:20 18° 93° (E) 11:50:22 437.505/2401.250
BEESAT 2 24 Oct 12:08:44 12:12:38 55° 118° (ESE) 12:16:36 435.950
EO-88 24 Oct 12:11:07 12:13:31 17° 292° (WNW) 12:15:55 145.990 - 145.960
BEESAT 3 24 Oct 12:15:02 12:18:45 35° 307° (NW) 12:22:28 437.485
Oscar 19 24 Oct 12:28:12 12:30:33 13° 61° (ENE) 12:32:54 437.125/150
EO-79 24 Oct 12:35:47 12:40:00 62° 260° (W) 12:44:15 145.935-145.965
RS-15 24 Oct 12:40:37 12:45:34 14° 265° (W) 12:50:27 29.354- 29.394
POLYITAN 1 24 Oct 12:41:53 12:46:04 53° 260° (W) 12:50:17 437.675
AIST 2D 24 Oct 12:44:39 12:46:23 13° 267° (W) 12:48:08 435.315
LO-87 24 Oct 12:45:02 12:48:35 51° 285° (WNW) 12:52:04 145.935 - 145.965
AO-85 24 Oct 12:48:17 12:52:09 89° 273° (W) 12:56:08 145.980
VELOX 1 24 Oct 12:50:47 12:53:20 15° 92° (E) 12:55:54 145.980
BUGSAT 1 24 Oct 12:58:46 13:02:45 43° 73° (ENE) 13:06:47 437.445
NANOSAT C BR1 24 Oct 13:01:20 13:05:14 35° 262° (W) 13:09:10 145.865
QB50P2 24 Oct 13:03:12 13:06:51 27° 264° (W) 13:10:32 145.880/145.840
SPROUT 24 Oct 13:05:59 13:09:52 33° 97° (E) 13:13:44 437.525
DUCHIFAT 1 24 Oct 13:09:32 13:13:21 33° 263° (W) 13:17:12 145.980
nSIGHT-1 24 Oct 13:14:53 13:15:48 11° 11° (NNE) 13:16:42 .
ESTCUBE 1 24 Oct 13:20:05 13:24:16 40° 288° (WNW) 13:28:26 437.505/2401.250
M-CUBED/EXP-1 PRIME 24 Oct 13:22:05 13:24:58 28° 67° (ENE) 13:27:49 437.505
Gurwin Techsat 1B 24 Oct 13:32:56 13:37:47 38° 69° (ENE) 13:42:40 435.225
DX 1 24 Oct 13:42:58 13:44:56 13° 92° (E) 13:46:54 434.975-435.025
BEESAT 2 24 Oct 13:48:15 13:50:41 15° 315° (NW) 13:53:09 435.950
50 SAT 24 Oct 13:54:15 13:56:29 17° 95° (E) 13:58:43 437.505
UKube-1 24 Oct 13:57:54 13:59:13 11° 91° (E) 14:00:31 .
ISS 24 Oct 13:58:46 14:00:48 15° 19° (NNE) 14:02:51 437.550
AO-7 24 Oct 14:00:31 14:06:18 22° 53° (NE) 14:12:04 .
Oscar 19 24 Oct 14:04:01 14:09:11 77° 257° (WSW) 14:14:21 437.125/150
SO-50 24 Oct 14:18:45 14:22:37 26° 48° (NE) 14:26:31 436.795
VELOX 1 24 Oct 14:25:44 14:30:00 47° 287° (WNW) 14:34:15 145.980
AO-85 24 Oct 14:33:03 14:33:13 10° 321° (NW) 14:33:23 145.980
BUGSAT 1 24 Oct 14:35:58 14:38:18 15° 268° (W) 14:40:39 437.445
SPROUT 24 Oct 14:42:22 14:45:31 20° 293° (WNW) 14:48:40 437.525
ITAMSAT 1 24 Oct 14:48:44 14:52:10 18° 63° (ENE) 14:55:37 435.822/435.867
nSIGHT-1 24 Oct 14:49:54 14:52:51 32° 31° (NNE) 14:55:47 .
M-CUBED/EXP-1 PRIME 24 Oct 14:57:56 14:59:29 13° 261° (W) 15:01:01 437.505
Gurwin Techsat 1B 24 Oct 15:13:26 15:17:47 26° 265° (W) 15:22:10 435.225
DX 1 24 Oct 15:17:07 15:21:24 53° 287° (WNW) 15:25:40 434.975-435.025
ITUPSAT 1 24 Oct 15:17:20 15:18:28 11° 90° (E) 15:19:36 437.325
50 SAT 24 Oct 15:26:08 15:28:42 21° 290° (WNW) 15:31:16 437.505
BEESAT 24 Oct 15:28:11 15:30:57 15° 92° (E) 15:33:42 436.000
UKube-1 24 Oct 15:31:18 15:35:35 59° 286° (WNW) 15:39:49 .
ISS 24 Oct 15:34:28 15:37:45 74° 38° (NE) 15:41:00 437.550
MOZHAYETS 4 24 Oct 15:38:59 15:42:37 23° 94° (E) 15:46:12
AO-7 24 Oct 15:49:43 15:58:02 87° 251° (WSW) 16:06:23 .
PCSat 24 Oct 15:51:19 15:55:13 20° 47° (NE) 15:59:05 145.827
SO-50 24 Oct 15:58:53 16:03:09 37° 245° (WSW) 16:07:27 436.795
ITAMSAT 1 24 Oct 16:26:04 16:31:09 56° 259° (W) 16:36:18 435.822/435.867
nSIGHT-1 24 Oct 16:26:20 16:29:01 25° 227° (SW) 16:31:42 .
ITUPSAT 1 24 Oct 16:51:59 16:56:46 73° 286° (WNW) 17:01:31 437.325
DOVE 4 24 Oct 16:57:04 17:00:49 32° 70° (ENE) 17:04:46 437.250
BEESAT 24 Oct 17:04:22 17:09:01 52° 288° (WNW) 17:13:37 436.000
ISS 24 Oct 17:13:03 17:13:46 11° 232° (SW) 17:14:27 437.550
MOZHAYETS 4 24 Oct 17:15:43 17:19:47 32° 290° (WNW) 17:23:47
XW-2F 24 Oct 17:26:59 17:28:33 12° 66° (ENE) 17:30:08 145.980 - 146.000
CUTE-I 24 Oct 17:30:58 17:34:43 20° 63° (ENE) 17:38:28 437.470
PCSat 24 Oct 17:33:43 17:39:05 66° 245° (WSW) 17:44:26 145.827
CUBESAT XI-V 24 Oct 17:38:58 17:43:35 84° 282° (WNW) 17:48:12 437.345
LilacSat-2 24 Oct 17:40:56 17:43:52 21° 70° (ENE) 17:46:47 437.200
XW-2D 24 Oct 17:41:50 17:44:41 21° 69° (ENE) 17:47:33 145.860 - 145.880
AO-7 24 Oct 17:47:07 17:51:47 16° 269° (W) 17:56:29 .
XW-2B 24 Oct 17:54:59 17:58:14 28° 72° (ENE) 18:01:31 145.730 - 145.750
KKS-1 24 Oct 18:07:50 18:12:14 52° 100° (E) 18:16:36 437.445
XW-2C 24 Oct 18:18:00 18:21:44 57° 75° (ENE) 18:25:26 145.795 - 145.815
HO-68 24 Oct 18:24:57 18:31:08 33° 63° (ENE) 18:37:21 435.675
STARS 24 Oct 18:27:11 18:31:12 33° 98° (E) 18:35:12 437.465
DOVE 4 24 Oct 18:35:29 18:38:36 20° 267° (W) 18:41:51 437.250
KAITUO 1B 24 Oct 18:48:18 18:52:01 79° 260° (W) 18:55:44 145.475/437.950
NUDT-PHONESAT 24 Oct 18:54:22 18:58:03 68° 259° (W) 19:01:45 437.300
BEESAT 3 24 Oct 18:57:14 18:58:01 10° 41° (NE) 18:58:47 437.485
XW-2F 24 Oct 18:58:40 19:02:16 43° 261° (W) 19:05:52 145.980 - 146.000
CUTE-I 24 Oct 19:09:09 19:14:19 52° 260° (W) 19:19:33 437.470
XW-2A 24 Oct 19:14:14 19:16:11 15° 68° (ENE) 19:18:09 145.665 - 145.685
LilacSat-2 24 Oct 19:14:52 19:17:59 24° 264° (W) 19:21:08 437.200
XW-2D 24 Oct 19:15:36 19:18:43 24° 264° (W) 19:21:50 145.860 - 145.880
SEEDS 24 Oct 19:15:50 19:19:35 33° 71° (ENE) 19:23:18 437.485
YUBILEINY 24 Oct 19:16:25 19:22:56 22° 66° (ENE) 19:29:25 435.215
CUTE 1.7 + AOD 2 24 Oct 19:17:46 19:21:54 59° 75° (ENE) 19:26:04 437.475
AAUSAT CUBESAT 2 24 Oct 19:25:54 19:28:45 18° 68° (ENE) 19:31:36 437.432
ZACube-1 24 Oct 19:28:34 19:31:06 15° 65° (ENE) 19:33:38 437.345
XW-2B 24 Oct 19:29:50 19:32:26 17° 266° (W) 19:35:01 145.730 - 145.750
CUBEBUG 2 24 Oct 19:31:51 19:36:23 51° 74° (ENE) 19:41:01 437.445
KKS-1 24 Oct 19:45:48 19:48:19 15° 296° (WNW) 19:50:50 437.445
O/OREOS (USA 219) 24 Oct 19:56:08 20:00:29 46° 106° (ESE) 20:04:53 437.305
Oscar 11 24 Oct 19:56:27 19:59:10 16° 66° (ENE) 20:01:53 .
UWE-3 24 Oct 19:59:39 20:04:13 58° 74° (ENE) 20:08:49 435.000/436.395/437.385
STARS 24 Oct 20:03:56 20:07:19 22° 293° (WNW) 20:10:42 437.465
HO-68 24 Oct 20:11:44 20:18:34 48° 260° (W) 20:25:30 435.675
STRAND 1 24 Oct 20:25:48 20:30:52 55° 100° (E) 20:35:54 437.568
BEESAT 2 24 Oct 20:27:31 20:30:52 24° 49° (NE) 20:34:11 435.950
BEESAT 3 24 Oct 20:32:12 20:36:10 90° 239° (WSW) 20:40:02 437.485
AO-73 24 Oct 20:37:11 20:41:43 70° 75° (ENE) 20:46:15 145.935
XW-2A 24 Oct 20:45:41 20:48:39 27° 263° (W) 20:51:36 145.665 - 145.685
FO-29 24 Oct 20:52:06 20:57:54 25° 93° (E) 21:03:58 435.910
SEEDS 24 Oct 20:52:23 20:55:18 18° 266° (W) 20:58:14 437.485
CUTE 1.7 + AOD 2 24 Oct 20:57:17 20:58:05 10° 270° (W) 20:58:54 437.475
AAUSAT CUBESAT 2 24 Oct 21:00:15 21:03:57 33° 263° (W) 21:07:40 437.432
ZACube-1 24 Oct 21:02:23 21:06:53 55° 260° (W) 21:11:23 437.345
CUBEBUG 2 24 Oct 21:10:26 21:13:16 16° 269° (W) 21:16:07 437.445
YUBILEINY 24 Oct 21:11:50 21:20:39 77° 265° (W) 21:29:27 435.215
EO-88 24 Oct 21:15:30 21:16:29 11° 66° (ENE) 21:17:28 145.990 - 145.960
AO-85 24 Oct 21:19:23 21:23:54 57° 56° (NE) 21:28:47 145.980
Oscar 11 24 Oct 21:30:49 21:34:56 42° 261° (W) 21:39:04 .
Max Valier Satellite 24 Oct 21:34:20 21:37:30 27° 71° (ENE) 21:40:40 145.860
O/OREOS (USA 219) 24 Oct 21:37:01 21:40:08 18° 304° (WNW) 21:43:18 437.305
UWE-3 24 Oct 21:38:43 21:40:59 13° 270° (W) 21:43:17 435.000/436.395/437.385
DELFI C3 24 Oct 21:41:49 21:45:35 49° 74° (ENE) 21:49:22 145.870
BEESAT 2 24 Oct 22:05:05 22:08:35 29° 246° (WSW) 22:12:01 435.950
STRAND 1 24 Oct 22:06:10 22:09:35 18° 297° (WNW) 22:12:59 437.568
AO-73 24 Oct 22:17:29 22:18:21 10° 271° (W) 22:19:13 145.935
PRISM 24 Oct 22:26:53 22:27:53 11° 91° (E) 22:28:53 437.425
FO-29 24 Oct 22:36:06 22:43:11 65° 288° (WNW) 22:50:51 435.910
RS-15 24 Oct 22:36:26 22:44:40 21° 99° (E) 22:52:54 29.354- 29.394
ESTCUBE 1 24 Oct 22:43:25 22:46:00 15° 65° (ENE) 22:48:34 437.505/2401.250
EO-88 24 Oct 22:46:12 22:49:42 45° 261° (W) 22:53:13 145.990 - 145.960
UNISAT 6 24 Oct 22:51:14 22:55:44 58° 100° (E) 23:00:07 437.425
AO-85 24 Oct 23:01:00 23:03:59 17° 250° (WSW) 23:07:05 145.980
TIGRISAT 24 Oct 23:04:34 23:09:08 76° 101° (ESE) 23:13:34 435.000
Max Valier Satellite 24 Oct 23:08:42 23:11:18 18° 266° (W) 23:13:54 145.860
YUBILEINY 24 Oct 23:12:13 23:15:51 13° 285° (WNW) 23:19:31 435.215
LO-87 24 Oct 23:19:22 23:22:50 47° 74° (ENE) 23:26:20 145.935 - 145.965
DELFI C3 24 Oct 23:19:37 23:20:36 11° 269° (W) 23:21:35 145.870
